N3AVN Weather Reports


time (UTC)temp
F
wind
direction
speed
knots
gust
knots
rain 1hr
in
rain 24hr
in
rain mn
in
humidity
%
barometer
mb
20260506233308 59 78 4.3 5.2 0.00 0.10 0.10 99 1004.9
20260506232805 59 135 1.7 3.5 0.00 0.10 0.10 99 1005.0
20260506232300 59 107 4.3 4.3 0.00 0.10 0.10 99 1004.8
20260506231757 59 225 2.6 6.1 0.00 0.10 0.10 99 1004.8
20260506231255 59 237 3.5 4.3 0.00 0.10 0.10 99 1004.5
20260506230752 59 180 0.9 5.2 0.00 0.10 0.10 99 1004.6
20260506230243 59 144 0.0 5.2 0.00 0.10 0.10 99 1004.7
20260506225739 59 201 1.7 4.3 0.00 0.10 0.10 99 1004.7
20260506225236 59 16 1.7 5.2 0.00 0.10 0.10 99 1004.6
20260506224732 59 221 1.7 4.3 0.00 0.10 0.10 99 1004.6
20260506224230 59 226 3.5 5.2 0.00 0.10 0.10 99 1004.5
20260506223726 59 90 1.7 7.0 0.00 0.10 0.10 99 1004.3
20260506223222 59 163 1.7 5.2 0.00 0.10 0.10 99 1004.5
20260506222714 59 66 0.9 6.1 0.00 0.10 0.10 99 1004.4
20260506222209 59 251 3.5 3.5 0.00 0.10 0.10 99 1004.3
20260506221707 59 36 1.7 4.3 0.00 0.10 0.10 99 1004.6
20260506221205 59 87 2.6 9.6 0.00 0.10 0.10 99 1004.5
20260506220702 59 105 1.7 4.3 0.00 0.10 0.10 98 1004.6
20260506220157 59 277 0.0 2.6 0.00 0.10 0.10 98 1004.7
20260506215654 59 81 0.0 1.7 0.02 0.10 0.10 98 1004.8
20260506215149 59 148 4.3 4.3 0.02 0.10 0.10 98 1004.6
20260506214646 59 184 1.7 4.3 0.02 0.09 0.09 98 1004.7
20260506214143 59 111 0.9 7.0 0.07 0.09 0.09 98 1004.5
20260506213642 59 15 1.7 5.2 0.12 0.09 0.09 98 1004.7
20260506213138 59 177 1.7 5.2 0.05 0.08 0.08 97 1004.7
20260506212635 60 319 0.0 3.5 0.00 0.07 0.07 97 1004.7
20260506212130 60 77 1.7 3.5 0.00 0.07 0.07 97 1004.5
20260506211626 60 81 0.0 4.3 0.00 0.07 0.07 98 1004.7
20260506211123 59 187 0.9 5.2 0.00 0.07 0.07 98 1004.6
20260506210620 60 232 5.2 5.2 0.00 0.07 0.07 98 1004.7
20260506210116 60 217 4.3 6.1 0.00 0.07 0.07 98 1004.7
20260506205613 60 197 1.7 5.2 0.00 0.07 0.07 98 1004.7
20260506205108 60 227 0.0 3.5 0.00 0.07 0.07 98 1004.9
20260506204606 60 321 0.0 7.8 0.00 0.07 0.07 98 1004.6
20260506204103 59 26 0.9 6.1 0.00 0.07 0.07 98 1004.8
20260506203601 59 286 0.9 6.1 0.00 0.07 0.07 98 1004.9
20260506203057 60 233 3.5 8.7 0.02 0.07 0.07 97 1004.9
20260506202555 59 180 0.9 5.2 0.05 0.07 0.07 97 1004.9
20260506202051 59 87 2.6 2.6 0.05 0.07 0.07 97 1005.0
20260506201549 59 95 1.7 3.5 0.05 0.06 0.06 97 1004.9
20260506201045 59 215 4.3 7.0 0.05 0.06 0.06 97 1005.1
20260506200541 59 311 1.7 7.8 0.02 0.06 0.06 96 1005.1
20260506200038 59 111 3.5 5.2 0.00 0.05 0.05 96 1005.3
20260506195535 59 94 2.6 5.2 0.00 0.05 0.05 96 1005.5
20260506195032 60 105 1.7 2.6 0.00 0.05 0.05 95 1005.3
20260506194529 60 14 0.0 5.2 0.00 0.05 0.05 95 1005.4
20260506194026 60 97 0.0 5.2 0.00 0.05 0.05 95 1005.3
20260506193523 60 259 1.7 4.3 0.00 0.05 0.05 95 1005.5
20260506193020 60 309 1.7 5.2 0.00 0.05 0.05 95 1005.5
20260506192517 59 215 0.9 5.2 0.00 0.05 0.05 95 1005.4
20260506192013 59 90 2.6 5.2 0.00 0.05 0.05 95 1005.6
20260506191510 60 105 0.0 3.5 0.00 0.05 0.05 95 1005.7
20260506191006 59 181 7.0 7.8 0.00 0.05 0.05 95 1005.8
20260506190503 59 275 3.5 5.2 0.00 0.05 0.05 95 1006.0
20260506185959 60 121 0.0 7.8 0.00 0.05 0.05 95 1005.6
20260506185457 59 228 1.7 5.2 0.00 0.05 0.05 95 1005.8
20260506184954 59 143 5.2 7.8 0.02 0.05 0.05 95 1006.0
20260506184452 60 226 4.3 8.7 0.02 0.05 0.05 95 1005.9
20260506183948 60 180 0.9 3.5 0.00 0.05 0.05 96 1005.9
20260506183443 60 108 5.2 6.1 0.00 0.05 0.05 96 1006.0
20260506182941 59 114 2.6 5.2 0.02 0.05 0.05 96 1005.9
20260506182438 60 57 4.3 5.2 0.02 0.04 0.04 95 1006.0
20260506181935 59 289 0.9 7.0 0.02 0.04 0.04 95 1005.9
20260506181433 59 67 5.2 5.2 0.00 0.04 0.04 95 1005.9
20260506180929 59 270 0.0 7.0 0.00 0.04 0.04 95 1006.0
20260506180426 59 236 2.6 6.1 0.02 0.04 0.04 95 1006.1
20260506175923 60 57 0.0 6.1 0.02 0.04 0.04 95 1006.1
20260506175420 60 227 5.2 8.7 0.00 0.04 0.04 94 1005.9
20260506174916 60 75 8.7 9.6 0.02 0.04 0.04 94 1006.1
20260506174414 60 98 3.5 7.8 0.02 0.03 0.03 93 1006.0
20260506173911 60 139 1.7 4.3 0.07 0.03 0.03 93 1006.1
20260506173408 60 211 2.6 4.3 0.07 0.03 0.03 93 1006.6
20260506172905 61 165 3.5 6.1 0.05 0.02 0.02 92 1006.3
20260506172401 62 86 4.3 6.1 0.05 0.02 0.02 91 1006.6
20260506171859 62 225 2.6 4.3 0.05 0.01 0.01 89 1006.6
20260506171356 62 187 0.9 8.7 0.05 0.01 0.01 87 1006.7
20260506170854 63 164 3.5 8.7 0.02 0.00 0.00 86 1007.0
20260506170349 64 199 2.6 5.2 0.00 0.00 0.00 85 1007.0
20260506165843 64 180 0.0 4.3 0.00 0.00 0.00 83 1006.7
20260506165340 65 175 5.2 9.6 0.00 0.00 0.00 81 1007.2
20260506164831 65 90 2.6 8.7 0.00 0.00 0.00 80 1007.0
20260506164328 66 15 1.7 8.7 0.00 0.00 0.00 79 1007.0
20260506163826 66 275 5.2 5.2 0.00 0.00 0.00 77 1006.8
20260506163320 66 90 0.0 7.8 0.00 0.00 0.00 77 1006.9
20260506162815 66 81 7.0 10.4 0.00 0.00 0.00 77 1006.9
20260506162313 67 146 4.3 7.8 0.00 0.00 0.00 76 1006.7
20260506161805 68 119 3.5 10.4 0.00 0.00 0.00 74 1006.8
20260506161302 68 51 2.6 7.0 0.00 0.00 0.00 74 1006.8
20260506160800 68 328 3.5 8.7 0.00 0.00 0.00 73 1006.7
20260506160256 69 123 1.7 8.7 0.00 0.00 0.00 73 1006.8
20260506155755 69 240 0.0 2.6 0.00 0.00 0.00 72 1006.8
20260506155251 68 124 4.3 10.4 0.00 0.00 0.00 72 1007.2
20260506153358 68 156 0.0 8.7 0.00 0.00 0.00 74 1007.3
20260506152855 68 209 4.3 7.0 0.00 0.00 0.00 73 1007.3
20260506152352 68 139 3.5 4.3 0.00 0.00 0.00 74 1007.3
20260506151851 68 229 4.3 7.0 0.00 0.00 0.00 73 1007.4
20260506151347 68 11 0.0 2.6 0.00 0.00 0.00 74 1007.2
20260506150844 68 7 0.0 6.1 0.00 0.00 0.00 75 1007.5
20260506150341 68 164 0.0 6.1 0.00 0.00 0.00 75 1007.4
20260506145837 67 244 2.6 9.6 0.00 0.00 0.00 76 1007.2
20260506145334 67 75 0.0 7.0 0.00 0.00 0.00 76 1007.2
20260506144832 67 115 6.1 7.0 0.00 0.00 0.00 76 1007.5
20260506144328 67 125 1.7 4.3 0.00 0.00 0.00 76 1007.5
20260506143827 66 222 5.2 8.7 0.00 0.00 0.00 77 1007.6
20260506143323 66 342 0.9 10.4 0.00 0.00 0.00 77 1007.8
20260506142821 66 94 2.6 2.6 0.00 0.00 0.00 77 1007.6
20260506142319 66 334 3.5 3.5 0.00 0.00 0.00 77 1007.6
20260506141817 66 214 3.5 10.4 0.00 0.00 0.00 77 1007.8
20260506141315 66 157 2.6 6.1 0.00 0.00 0.00 77 1007.9
20260506140813 66 226 4.3 4.3 0.00 0.00 0.00 77 1007.7
20260506140309 66 205 0.0 3.5 0.00 0.00 0.00 79 1008.0
20260506135806 65 60 1.7 4.3 0.00 0.00 0.00 80 1007.9
20260506135305 64 344 1.7 7.0 0.00 0.00 0.00 80 1007.7
20260506134759 64 241 4.3 4.3 0.00 0.00 0.00 81 1007.8
20260506134256 64 261 0.0 4.3 0.00 0.00 0.00 81 1007.5
20260506133753 64 60 4.3 4.3 0.00 0.00 0.00 81 1007.5
20260506133250 64 147 1.7 2.6 0.00 0.00 0.00 82 1007.7
20260506132746 63 192 0.9 8.7 0.00 0.00 0.00 82 1007.5
20260506132244 63 354 0.9 10.4 0.00 0.00 0.00 83 1007.5
20260506131742 63 185 0.0 5.2 0.00 0.00 0.00 83 1007.6
20260506131237 62 117 7.8 7.8 0.00 0.00 0.00 83 1007.8
20260506130734 62 327 0.0 4.3 0.00 0.00 0.00 84 1008.1
20260506130231 61 265 1.7 5.2 0.00 0.00 0.00 85 1007.9
20260506125729 61 116 3.5 8.7 0.00 0.00 0.00 86 1008.0
20260506125227 61 34 0.0 4.3 0.00 0.00 0.00 86 1007.8
20260506124725 61 135 4.3 4.3 0.00 0.00 0.00 86 1007.8
20260506124223 61 111 4.3 7.8 0.00 0.00 0.00 86 1008.4
20260506123719 61 249 3.5 5.2 0.00 0.00 0.00 86 1008.3
20260506123218 61 61 6.1 6.1 0.00 0.00 0.00 86 1008.5
20260506122715 60 135 1.7 2.6 0.00 0.00 0.00 87 1008.2
20260506122212 60 225 2.6 5.2 0.00 0.00 0.00 86 1008.5
20260506121710 60 39 2.6 7.0 0.00 0.00 0.00 87 1008.3
20260506121206 60 40 0.0 4.3 0.00 0.00 0.00 87 1008.7
20260506120704 60 42 2.6 7.8 0.00 0.00 0.00 87 1008.3
20260506120201 60 180 1.7 5.2 0.00 0.00 0.00 88 1008.0
20260506115659 60 90 0.0 2.6 0.00 0.00 0.00 88 1008.3
20260506115157 59 147 1.7 10.4 0.00 0.00 0.00 87 1008.3
20260506114654 60 246 1.7 2.6 0.00 0.00 0.00 87 1008.3
20260506114152 59 348 2.6 7.0 0.00 0.00 0.00 88 1008.3
20260506113651 59 225 3.5 4.3 0.00 0.00 0.00 87 1008.2
20260506113147 59 261 0.0 7.0 0.00 0.00 0.00 88 1008.6
20260506112643 59 220 2.6 5.2 0.00 0.00 0.00 88 1008.5
20260506112141 59 199 2.6 3.5 0.00 0.00 0.00 88 1008.3
20260506111639 59 165 1.7 3.5 0.00 0.00 0.00 89 1008.1
20260506111136 59 241 1.7 4.3 0.00 0.00 0.00 89 1008.2
20260506110633 58 200 0.9 4.3 0.00 0.00 0.00 90 1008.3
20260506110131 58 54 2.6 2.6 0.00 0.00 0.00 90 1008.6
20260506105627 58 3 2.6 2.6 0.00 0.00 0.00 91 1008.6
20260506105124 57 160 2.6 6.1 0.00 0.00 0.00 91 1008.5
20260506104623 57 123 3.5 5.2 0.00 0.00 0.00 92 1008.5
20260506104120 57 113 2.6 2.6 0.00 0.00 0.00 92 1008.5
20260506103617 57 90 0.9 1.7 0.00 0.00 0.00 92 1008.5
20260506103114 57 172 0.0 1.7 0.00 0.00 0.00 92 1008.7
20260506102612 56 120 2.6 2.6 0.00 0.00 0.00 92 1008.5
20260506102109 56 109 0.0 1.7 0.00 0.00 0.00 92 1008.4
20260506101606 56 125 1.7 2.6 0.00 0.00 0.00 92 1008.2
20260506101102 56 90 1.7 1.7 0.00 0.00 0.00 92 1008.2
20260506100601 56 90 0.0 1.7 0.00 0.00 0.00 92 1008.3
20260506100058 56 151 0.0 2.6 0.00 0.00 0.00 92 1008.2
20260506095557 56 126 0.9 1.7 0.00 0.00 0.00 91 1008.1
20260506095053 57 180 0.9 1.7 0.00 0.00 0.00 90 1008.3
20260506094551 57 187 0.0 2.6 0.00 0.00 0.00 90 1008.4
20260506094049 57 103 0.0 4.3 0.00 0.00 0.00 90 1008.1
20260506093547 57 270 0.0 2.6 0.00 0.00 0.00 90 1008.1
20260506093044 57 227 2.6 2.6 0.00 0.00 0.00 89 1008.0
20260506092542 57 270 1.7 6.1 0.00 0.00 0.00 89 1008.3
20260506092038 57 12 0.0 2.6 0.00 0.00 0.00 89 1007.9
20260506091537 57 252 4.3 4.3 0.00 0.00 0.00 89 1008.4
20260506091033 57 180 1.7 3.5 0.00 0.00 0.00 89 1008.2
20260506090531 57 120 0.9 4.3 0.00 0.00 0.00 88 1008.2
20260506090027 58 251 0.9 5.2 0.00 0.00 0.00 88 1008.2
20260506085524 58 207 2.6 4.3 0.00 0.00 0.00 88 1008.4
20260506085021 58 84 1.7 7.8 0.00 0.00 0.00 88 1008.2
20260506084518 58 180 0.0 2.6 0.00 0.00 0.00 87 1008.2
20260506084014 58 60 0.0 2.6 0.00 0.00 0.00 87 1008.2
20260506083511 58 209 0.9 5.2 0.00 0.00 0.00 87 1008.2
20260506083009 58 282 0.0 5.2 0.00 0.00 0.00 86 1008.2
20260506082505 58 229 2.6 4.3 0.00 0.00 0.00 86 1008.2
20260506082001 58 188 0.0 5.2 0.00 0.00 0.00 86 1008.1
20260506081459 59 354 0.0 6.1 0.00 0.00 0.00 86 1008.3
20260506080956 59 231 3.5 6.1 0.00 0.00 0.00 85 1008.3
20260506080453 59 332 1.7 4.3 0.00 0.00 0.00 85 1008.2
20260506073437 59 23 0.9 4.3 0.00 0.00 0.00 85 1008.1
20260506072935 59 346 0.0 3.5 0.00 0.00 0.00 84 1008.1
20260506072431 59 207 2.6 5.2 0.00 0.00 0.00 84 1008.3
20260506071929 60 156 1.7 2.6 0.00 0.00 0.00 83 1008.2
20260506071427 60 37 3.5 3.5 0.00 0.00 0.00 83 1008.1
20260506070924 60 117 1.7 4.3 0.00 0.00 0.00 83 1008.1
20260506070421 60 215 2.6 3.5 0.00 0.00 0.00 82 1008.4
20260506062358 61 114 0.9 2.6 0.00 0.00 0.00 80 1008.1
20260506061854 61 156 2.6 4.3 0.00 0.00 0.00 80 1008.3
20260506061351 61 206 2.6 5.2 0.00 0.00 0.00 80 1008.1
20260506060849 61 54 3.5 3.5 0.00 0.00 0.00 79 1007.9
20260506060346 61 140 0.0 3.5 0.00 0.00 0.00 79 1008.1
20260506051318 62 110 1.7 2.6 0.00 0.00 0.00 75 1008.1
20260506050816 62 14 1.7 3.5 0.00 0.00 0.00 74 1008.3
20260506050313 62 36 0.0 1.7 0.00 0.00 0.00 74 1008.1
20260506044804 62 0 4.3 6.1 0.00 0.00 0.00 73 1008.2
20260506044301 62 83 0.9 5.2 0.00 0.00 0.00 73 1008.3
20260506043758 63 198 2.6 4.3 0.00 0.00 0.00 73 1008.4
20260506043255 63 176 1.7 3.5 0.00 0.00 0.00 73 1008.2
20260506042754 63 14 1.7 2.6 0.00 0.00 0.00 73 1008.0
20260506042253 63 231 0.0 4.3 0.00 0.00 0.00 72 1008.2
20260506041751 63 66 0.9 3.5 0.00 0.00 0.00 72 1008.3
20260506041247 63 160 4.3 6.1 0.00 0.00 0.00 72 1008.3
20260506040745 63 196 2.6 4.3 0.00 0.00 0.00 72 1008.4
20260506040242 63 131 0.0 2.6 0.00 0.00 0.00 72 1008.4
20260506035738 63 330 2.6 2.6 0.00 0.00 0.00 72 1008.4
20260506035236 63 127 1.7 3.5 0.00 0.00 0.00 72 1008.5
20260506034732 63 191 1.7 4.3 0.00 0.00 0.00 71 1008.2
20260506034230 63 90 0.0 1.7 0.00 0.00 0.00 71 1008.3
20260506033727 63 175 2.6 5.2 0.00 0.00 0.00 71 1008.4
20260506033224 63 192 0.0 3.5 0.00 0.00 0.00 71 1008.5
20260506032721 63 95 1.7 2.6 0.00 0.00 0.00 71 1008.4
20260506032217 63 210 1.7 3.5 0.00 0.00 0.00 71 1008.5
20260506031714 63 171 4.3 4.3 0.00 0.00 0.00 70 1008.5
20260506031212 63 180 0.9 4.3 0.00 0.00 0.00 70 1008.4
20260506030710 63 120 4.3 4.3 0.00 0.00 0.00 69 1008.4
20260506030207 64 231 2.6 7.0 0.00 0.00 0.00 69 1008.5
20260506025703 64 132 1.7 6.1 0.00 0.00 0.00 69 1008.3
20260506025200 64 119 3.5 6.1 0.00 0.00 0.00 68 1008.2
20260506024657 64 195 0.0 7.8 0.00 0.00 0.00 68 1008.5
20260506024153 64 244 3.5 3.5 0.00 0.00 0.00 68 1008.2
20260506023650 64 15 0.9 5.2 0.00 0.00 0.00 67 1008.4
20260506023147 65 90 0.9 6.1 0.00 0.00 0.00 66 1008.1
20260506022644 65 146 1.7 4.3 0.00 0.00 0.00 66 1008.1
20260506022141 64 356 1.7 5.2 0.00 0.00 0.00 66 1008.1
20260506021639 64 62 3.5 4.3 0.00 0.00 0.00 66 1008.1
20260506021136 65 270 0.9 7.8 0.00 0.00 0.00 66 1008.0
20260506020633 64 217 1.7 2.6 0.00 0.00 0.00 66 1008.2
20260506020131 64 203 9.6 9.6 0.00 0.00 0.00 66 1008.2
20260506015628 65 216 2.6 5.2 0.00 0.00 0.00 65 1008.3
20260506015125 64 129 1.7 3.5 0.00 0.00 0.00 66 1008.1
20260506014623 65 55 2.6 4.3 0.00 0.00 0.00 65 1007.9
20260506014118 65 74 1.7 2.6 0.00 0.00 0.00 65 1008.1
20260506013617 65 189 1.7 3.5 0.00 0.00 0.00 65 1008.0
20260506013113 65 112 1.7 2.6 0.00 0.00 0.00 65 1007.7
20260506012609 65 36 2.6 2.6 0.00 0.00 0.00 65 1008.0
20260506012106 65 85 0.0 4.3 0.00 0.00 0.00 64 1007.7
20260506011604 65 208 2.6 2.6 0.00 0.00 0.00 65 1007.7
20260506011100 66 153 0.0 3.5 0.00 0.00 0.00 65 1007.5
20260506010559 66 232 0.0 2.6 0.00 0.00 0.00 64 1007.7
20260506010056 66 263 5.2 7.0 0.00 0.00 0.00 64 1007.6
20260506005553 66 163 3.5 7.0 0.00 0.00 0.00 64 1007.6
20260506005048 66 115 3.5 3.5 0.00 0.00 0.00 64 1007.4
20260506004546 66 188 0.0 5.2 0.00 0.00 0.00 63 1007.5
20260506004043 67 166 1.7 6.1 0.00 0.00 0.00 63 1007.2
20260506003539 67 246 0.0 5.2 0.00 0.00 0.00 63 1007.2
20260506003035 67 99 0.0 5.2 0.00 0.00 0.00 63 1007.1
20260506002531 67 94 1.7 5.2 0.00 0.00 0.00 63 1007.1
20260506002027 67 84 0.0 5.2 0.00 0.00 0.00 63 1006.9
20260506001524 68 186 0.0 6.1 0.00 0.00 0.00 62 1006.9
20260506001021 68 71 1.7 5.2 0.00 0.00 0.00 62 1006.8
20260506000519 68 8 0.0 8.7 0.00 0.00 0.00 62 1006.7
20260506000016 68 148 0.0 4.3 0.00 0.00 0.00 62 1006.6
20260505235514 68 223 4.3 13.0 0.00 0.00 0.00 61 1006.6
20260505235010 68 323 2.6 7.0 0.00 0.00 0.00 61 1006.4
20260505234508 69 208 2.6 7.8 0.00 0.00 0.00 61 1006.3
20260505234004 69 350 0.0 9.6 0.00 0.00 0.00 60 1006.3